Regional Weather Roundup
Issued by NWS

Home | Current Version | Previous Version | Text Only | Print | Product List | Glossary On
Versions: 1 2 3 4 5 6 7 8 9 10 11 12 13 14 15 16 17 18 19 20 21 22 23 24 25 26 27 28 29 30 31 32 33 34 35 36 37 38 39 40 41 42 43 44 45 46 47 48 49 50
000
ASUS43 KLSX 212207
RWRMO

WEATHER SUMMARY FOR MISSOURI
NATIONAL WEATHER SERVICE SPRINGFIELD MO
400 PM CST SUN DEC 21 2014

NOTE: "FAIR" INDICATES FEW OR NO CLOUDS BELOW 12,000 FEET WITH NO
       SIGNIFICANT WEATHER AND/OR OBSTRUCTIONS TO VISIBILITY.
       CURRENT SKY AND/OR WEATHER CONDITIONS ARE NOT AVAILABLE FOR
       CHILLICOTHE AND FARMINGTON.

MOZ001>031-035>038-043-044-053-054-212300-
...NORTHERN AND WESTERN MISSOURI...

CITY           SKY/WX    TMP DP  RH WIND       PRES   REMARKS
KANSAS CTY INT CLOUDY    45  39  79 S16       29.83F
KANSAS C DTWN  CLOUDY    47  39  74 S13       29.85S
LEE`S SUMMIT   CLOUDY    44  41  89 S8        29.86F
ST JOSEPH      CLOUDY    43  39  86 S10       29.83S
CHILLICOTHE      N/A     45  40  82 S9        29.88F
KIRKSVILLE     CLOUDY    44  39  82 S13       29.90F

$$
MOZ066>068-077>081-088>096-101>105-212300-
...SOUTHWEST MISSOURI...

CITY           SKY/WX    TMP DP  RH WIND       PRES   REMARKS
SPRINGFIELD    CLOUDY    42  36  79 S14       29.91F
JOPLIN         CLOUDY    48  38  68 S14       29.88F

$$
MOZ032>034-039>042-045>050-055>058-069>072-212300-
...CENTRAL MISSOURI...

CITY           SKY/WX    TMP DP  RH WIND       PRES   REMARKS
COLUMBIA       CLOUDY    43  38  82 S13       29.93F
JEFFERSON CITY CLOUDY    44  37  76 SE13      29.95F
ROLLA          CLOUDY    39  35  86 S10       29.96F
SEDALIA        CLOUDY    45  39  79 SE13      29.91S
WHITEMAN AFB   CLOUDY    43  40  88 S10       29.89S
WARRENSBURG    CLOUDY    43  41  93 SE9       29.88F FOG
OSAGE BEACH    CLOUDY    45  36  70 S10       29.94S

$$
MOZ051-052-059>065-212300-
...EAST CENTRAL MISSOURI...

CITY           SKY/WX    TMP DP  RH WIND       PRES   REMARKS
ST LOUIS INTL  CLOUDY    44  32  62 S16G24    30.03F
SPIRIT OF STL  CLOUDY    42  33  70 VRB6      30.02F
ST CHARLES     CLOUDY    42  34  73 SE14      30.03F

$$
MOZ072>076-082>087-097>100-106>115-212300-
...SOUTH CENTRAL AND SOUTHEAST MISSOURI...

CITY           SKY/WX    TMP DP  RH WIND       PRES   REMARKS
CAPE GIRARDEAU PTCLDY    46  35  65 SE8       30.07S
FARMINGTON     CLOUDY    41  32  70 E6        30.04F
POPLAR BLUFF   CLOUDY    44  34  67 E5        30.04F
WEST PLAINS    CLOUDY    41  33  73 SE10      29.98F

$$


USA.gov is the U.S. government's official web portal to all federal, state and local government web resources and services.